Weather History for Hillsdale, MI

Change the Weather History Date:

Saturday, January 5, 2013

  Actual Average Record
Temperature  
Mean Temperature 28 °F -  
Max Temperature 34 °F 31 °F 53 °F (1993)
Min Temperature 21 °F 12 °F -14 °F (1999)
Degree Days  
Heating Degree Days 38    
Moisture  
Dew Point 24 °F    
Average Humidity 82    
Maximum Humidity 96    
Minimum Humidity 62    
Precipitation  
Precipitation 0.00 in - - ()
Sea Level Pressure  
Sea Level Pressure 30.13 in    
Wind  
Wind Speed 8 mph (SW)    
Max Wind Speed 14 mph    
Max Gust Speed 20 mph    
Visibility 7 miles    
Events Snow    
Averages and records for this station are not official NWS values.
T = Trace of Precipitation, MM = Missing Value Source: NWS Daily Summary

Daily Weather History Graph

Daily Weather History Graph

Search for Another Location

Airport:

Trip Planner

Search our weather history database for the weather conditions in past years. The results will help you decide how hot, cold, wet, or windy it might be!

Date:

Astronomy

Jan. 05, 2013 Rise Set
Actual Time 8:06 AM EST 5:21 PM EST
Civil Twilight 7:34 AM EST 5:53 PM EST
Nautical Twilight 6:59 AM EST 6:28 PM EST
Astronomical Twilight 6:26 AM EST 7:01 PM EST
Moon 1:08 AM EST (1/5) 12:14 PM EST (1/5)
Length of Visible Light 10h 18m
Length of Day
9h 15m
Last Quarter, 44% of the Moon is Illuminated
Jan 5
Last Quarter
Jan 11
New
Jan 18
First Quarter
Jan 26
Full
Feb 3
Last Quarter

Hourly Weather History & Observations

Time (EST) Temp. Windchill Dew Point Humidity Pressure Visibility Wind Dir Wind Speed Gust Speed Precip Events Conditions
12:15 AM 25.5 °F 14.9 °F 20.8 °F 82% 30.17 in 10.0 mi West 11.5 mph - N/A   Clear
12:34 AM 25.2 °F 15.1 °F 20.5 °F 82% 30.17 in 10.0 mi West 10.4 mph 16.1 mph N/A   Clear
12:55 AM 25.2 °F 15.1 °F 20.7 °F 83% 30.17 in 10.0 mi West 10.4 mph - N/A   Clear
1:14 AM 24.8 °F 15.3 °F 20.5 °F 84% 30.18 in 10.0 mi West 9.2 mph - N/A   Clear
1:34 AM 24.6 °F 15.1 °F 20.5 °F 84% 30.18 in 10.0 mi West 9.2 mph - N/A   Clear
1:54 AM 24.6 °F 14.4 °F 20.5 °F 84% 30.19 in 10.0 mi West 10.4 mph - N/A   Clear
2:14 AM 24.6 °F 14.4 °F 20.5 °F 84% 30.19 in 10.0 mi West 10.4 mph - N/A   Clear
2:35 AM 25.2 °F 16.5 °F 20.8 °F 84% 30.21 in 10.0 mi West 8.1 mph 16.1 mph N/A   Mostly Cloudy
2:54 AM 25.9 °F 16.6 °F 21.0 °F 82% 30.21 in 10.0 mi West 9.2 mph - N/A   Overcast
3:15 AM 25.9 °F 16.6 °F 21.0 °F 82% 30.20 in 10.0 mi West 9.2 mph - N/A   Overcast
3:34 AM 25.9 °F 18.2 °F 21.4 °F 83% 30.20 in 10.0 mi West 6.9 mph - N/A   Overcast
3:55 AM 25.5 °F 21.3 °F 21.2 °F 84% 30.20 in 10.0 mi West 3.5 mph - N/A   Overcast
4:14 AM 25.2 °F 18.3 °F 20.8 °F 84% 30.21 in 10.0 mi WSW 5.8 mph - N/A   Overcast
4:34 AM 24.6 °F 17.7 °F 20.7 °F 85% 30.21 in 10.0 mi West 5.8 mph - N/A   Scattered Clouds
4:55 AM 23.4 °F 17.4 °F 19.9 °F 87% 30.22 in 7.0 mi WSW 4.6 mph - N/A   Clear
5:14 AM 23.2 °F 17.2 °F 19.9 °F 87% 30.21 in 7.0 mi WSW 4.6 mph - N/A   Clear
5:35 AM 22.5 °F 17.8 °F 19.6 °F 89% 30.21 in 7.0 mi West 3.5 mph - N/A   Clear
5:55 AM 21.6 °F 16.8 °F 19.2 °F 91% 30.21 in 7.0 mi SW 3.5 mph - N/A   Clear
6:14 AM 22.3 °F 13.9 °F 19.9 °F 91% 30.22 in 7.0 mi SW 6.9 mph - N/A   Scattered Clouds
7:15 AM 24.4 °F - 20.8 °F 86% 30.21 in 7.0 mi Calm Calm - N/A   Overcast
7:34 AM 24.3 °F - 20.8 °F 87% 30.21 in 7.0 mi Calm Calm - N/A   Overcast
7:54 AM 24.3 °F 17.3 °F 21.0 °F 87% 30.21 in 7.0 mi South 5.8 mph - N/A   Overcast
8:34 AM 23.5 °F 16.4 °F 20.8 °F 89% 30.22 in 5.0 mi South 5.8 mph - N/A   Overcast
8:54 AM 22.8 °F 16.7 °F 20.1 °F 89% 30.22 in 5.0 mi South 4.6 mph - N/A   Scattered Clouds
9:15 AM 22.8 °F 15.5 °F 19.9 °F 89% 30.22 in 5.0 mi South 5.8 mph - N/A   Clear
9:34 AM 23.4 °F 18.9 °F 19.9 °F 87% 30.22 in 5.0 mi South 3.5 mph - N/A   Clear
9:55 AM 24.3 °F 18.4 °F 19.9 °F 84% 30.22 in 5.0 mi South 4.6 mph - N/A   Clear
10:15 AM 25.2 °F 17.3 °F 19.9 °F 81% 30.22 in 5.0 mi South 6.9 mph - N/A   Haze
10:55 AM 25.5 °F 17.8 °F 19.8 °F 79% 30.21 in 5.0 mi South 6.9 mph - N/A   Haze
11:15 AM 26.4 °F 18.9 °F 19.9 °F 77% 30.21 in 5.0 mi South 6.9 mph - N/A   Haze
12:14 PM 29.5 °F 21.8 °F 21.4 °F 72% 30.17 in 7.0 mi SSW 8.1 mph - N/A   Clear
12:55 PM 30.7 °F 22.0 °F 21.7 °F 69% 30.15 in 7.0 mi SSW 10.4 mph - N/A   Clear
1:14 PM 31.8 °F 21.8 °F 22.5 °F 68% 30.15 in 10.0 mi SW 13.8 mph 17.3 mph N/A   Clear
1:35 PM 32.5 °F 24.8 °F 22.5 °F 66% 30.13 in 10.0 mi SSW 9.2 mph - N/A   Clear
1:55 PM 32.4 °F 24.6 °F 22.6 °F 67% 30.11 in 10.0 mi SSW 9.2 mph - N/A   Clear
2:14 PM 33.3 °F 25.7 °F 23.4 °F 67% 30.10 in 10.0 mi SSW 9.2 mph - N/A   Clear
2:35 PM 33.6 °F 27.5 °F 23.4 °F 66% 30.09 in 10.0 mi SSW 6.9 mph - N/A   Clear
2:55 PM 34.0 °F 27.2 °F 23.4 °F 65% 30.09 in 10.0 mi SSW 8.1 mph - N/A   Clear
3:14 PM 34.7 °F 26.9 °F 23.2 °F 63% 30.08 in 10.0 mi SSW 10.4 mph - N/A   Clear
3:35 PM 34.9 °F 26.6 °F 23.0 °F 62% 30.08 in 10.0 mi SW 11.5 mph 16.1 mph N/A   Clear
3:55 PM 34.0 °F 28.0 °F 23.5 °F 66% 30.09 in 10.0 mi SSW 6.9 mph - N/A   Clear
4:15 PM 32.7 °F 26.4 °F 23.9 °F 70% 30.08 in 10.0 mi SSW 6.9 mph - N/A   Scattered Clouds
4:34 PM 32.5 °F 27.1 °F 24.4 °F 72% 30.07 in 10.0 mi South 5.8 mph - N/A   Mostly Cloudy
4:55 PM 32.2 °F 28.9 °F 24.4 °F 73% 30.06 in 10.0 mi SSW 3.5 mph - N/A   Mostly Cloudy
5:15 PM 32.4 °F 27.9 °F 24.6 °F 73% 30.07 in 10.0 mi South 4.6 mph - N/A   Overcast
5:54 PM 32.9 °F 25.9 °F 24.6 °F 72% 30.07 in 10.0 mi SSW 8.1 mph - N/A   Overcast
6:15 PM 33.3 °F 25.1 °F 25.0 °F 72% 30.07 in 10.0 mi SSW 10.4 mph - N/A   Overcast
6:35 PM 33.3 °F 24.1 °F 25.2 °F 72% 30.06 in 10.0 mi SW 12.7 mph - N/A   Overcast
6:54 PM 33.3 °F 25.1 °F 25.7 °F 74% 30.07 in 7.0 mi SW 10.4 mph - N/A Snow Light Snow
7:15 PM 32.2 °F 25.0 °F 27.9 °F 84% 30.07 in 2.0 mi SW 8.1 mph 16.1 mph N/A Snow Light Snow
7:34 PM 31.5 °F 23.5 °F 28.9 °F 90% 30.07 in 3.0 mi SW 9.2 mph - N/A Snow Light Snow
7:54 PM 31.5 °F 24.9 °F 29.5 °F 92% 30.06 in 2.0 mi SSW 6.9 mph - N/A Snow Light Snow
8:15 PM 31.5 °F 25.8 °F 29.8 °F 94% 30.05 in 1.2 mi SSW 5.8 mph - N/A Snow Light Snow
8:34 PM 31.5 °F 25.8 °F 30.2 °F 95% 30.05 in 2.0 mi SSW 5.8 mph - N/A Snow Light Snow
8:55 PM 31.5 °F 24.2 °F 30.4 °F 96% 30.05 in 3.0 mi SSW 8.1 mph - N/A Snow Light Snow
9:15 PM 31.5 °F 23.5 °F 30.4 °F 96% 30.04 in 4.0 mi SSW 9.2 mph - N/A   Overcast
9:34 PM 31.8 °F 23.3 °F 30.7 °F 96% 30.04 in 3.0 mi SSW 10.4 mph - N/A   Overcast
9:54 PM 31.8 °F 22.3 °F 30.9 °F 96% 30.03 in 2.5 mi SSW 12.7 mph 16.1 mph N/A Snow Light Snow
10:15 PM 32.2 °F 24.4 °F 31.3 °F 96% 30.02 in 3.0 mi SSW 9.2 mph - N/A   Overcast
10:34 PM 32.2 °F 24.4 °F 31.1 °F 96% 30.02 in 4.0 mi SSW 9.2 mph - N/A   Overcast
10:54 PM 32.4 °F 23.5 °F 31.1 °F 95% 30.02 in 5.0 mi SSW 11.5 mph 19.6 mph N/A   Overcast
11:14 PM 32.4 °F 22.5 °F 30.7 °F 94% 30.02 in 7.0 mi SW 13.8 mph - N/A   Overcast
11:35 PM 32.5 °F 23.2 °F 30.4 °F 92% 30.01 in 7.0 mi SW 12.7 mph - N/A   Overcast
11:54 PM 33.3 °F 24.6 °F 30.6 °F 90% 30.00 in 7.0 mi SW 11.5 mph - N/A   Overcast